This is the latest recevied weather packets stored in our database for station/object W4JCW. If no packets are shown the sender has not sent any weather packets the latest 10 day(s).
| Time | Temp. | Humidity | Pressure | Rain* | Wind** | Luminosity | Snow |
|---|---|---|---|---|---|---|---|
| 1777420444 | 18.89° C | 80% | 1016 hPa | 0 mm | - | 6 W/m² | - |
| 1777420141 | 18.89° C | 80% | 1015.8 hPa | 0 mm | - | 10 W/m² | - |
| 1777419837 | 18.89° C | 79% | 1015.8 hPa | 0 mm | - | 15 W/m² | - |
| 1777419535 | 18.89° C | 78% | 1015.5 hPa | 0 mm | - | 20 W/m² | - |
| 1777419233 | 19.44° C | 78% | 1015.6 hPa | 0 mm | - | 24 W/m² | - |
| 1777418930 | 19.44° C | 77% | 1015.5 hPa | 0 mm | - | 28 W/m² | - |
| 1777418625 | 19.44° C | 77% | 1015.5 hPa | 0 mm | - | 31 W/m² | - |
| 1777418322 | 19.44° C | 76% | 1015.4 hPa | 0 mm | - | 35 W/m² | - |
| 1777418018 | 19.44° C | 75% | 1015.2 hPa | 0 mm | - | 36 W/m² | - |
| 1777417714 | 20° C | 75% | 1015.2 hPa | 0 mm | - | 35 W/m² | - |
| 1777417409 | 20° C | 74% | 1015.1 hPa | 0 mm | - | 38 W/m² | - |
| 1777417106 | 20° C | 73% | 1015.1 hPa | 0 mm | - | 39 W/m² | - |
| 1777416801 | 20° C | 73% | 1014.9 hPa | 0 mm | - | 37 W/m² | - |
| 1777416497 | 20.56° C | 71% | 1015 hPa | 0 mm | - | 38 W/m² | - |
| 1777416194 | 20.56° C | 70% | 1014.9 hPa | 0 mm | - | 44 W/m² | - |
| 1777415893 | 21.11° C | 70% | 1015.1 hPa | 0 mm | - | 57 W/m² | - |
| 1777415590 | 21.11° C | 69% | 1015.2 hPa | 0 mm | - | 63 W/m² | - |
| 1777415285 | 21.67° C | 67% | 1015.5 hPa | 0 mm | - | 71 W/m² | - |
| 1777414980 | 21.67° C | 66% | 1015.3 hPa | 0 mm | - | 140 W/m² | - |
| 1777414680 | 21.67° C | 68% | 1015.5 hPa | 0 mm | - | 264 W/m² | - |
| 1777414376 | 21.11° C | 70% | 1015.8 hPa | 0 mm | - | 318 W/m² | - |
| 1777414076 | 20.56° C | 70% | 1016 hPa | 0 mm | - | 149 W/m² | - |
| 1777413776 | 21.11° C | 69% | 1016 hPa | 0 mm | - | 140 W/m² | - |
| 1777413471 | 21.11° C | 68% | 1016.1 hPa | 0 mm | - | 147 W/m² | - |
| 1777413168 | 21.67° C | 67% | 1016 hPa | 0 mm | - | 124 W/m² | - |
* Rain latest hour (hover to see other rain measurements)
** Current wind speed in m/s (hover to see current wind gust speed)